CDT,Max TemperatureF,Mean TemperatureF,Min TemperatureF,Max Dew PointF,MeanDew PointF,Min DewpointF,Max Humidity, Mean Humidity, Min Humidity, Max Sea Level PressureIn, Mean Sea Level PressureIn, Min Sea Level PressureIn, Max VisibilityMiles, Mean VisibilityMiles, Min VisibilityMiles, Max Wind SpeedMPH, Mean Wind SpeedMPH, Max Gust SpeedMPH,PrecipitationIn, CloudCover, Events, WindDirDegrees
2012-9-1,83,80,77,75,74,72,89,81,73,29.90,29.84,29.80,10,8,2,15,7,24,0.78,8,Rain,109
2012-9-2,91,84,78,75,73,72,84,76,55,29.90,29.85,29.80,10,8,2,15,5,22,0.22,6,Rain,340
2012-9-3,95,86,77,73,71,66,83,66,38,29.94,29.91,29.88,10,8,3,10,4,16,0.00,3,,14
2012-9-4,98,88,77,72,68,57,83,59,25,29.94,29.89,29.84,10,10,7,6,2,,0.00,0,Rain,212
2012-9-5,88,80,71,70,68,62,83,71,51,29.95,29.86,29.83,10,10,4,20,5,40,0.13,1,Rain-Thunderstorm,143
2012-9-6,94,84,74,70,63,48,82,57,21,30.00,29.93,29.89,10,10,7,8,2,,0.00,0,,46
2012-9-7,91,79,66,73,65,58,83,68,41,29.96,29.84,29.75,10,10,2,22,5,30,0.22,3,Rain-Thunderstorm,238
2012-9-8,79,69,59,59,50,40,83,54,25,30.06,30.00,29.93,10,10,10,14,8,22,0.00,0,,293
2012-9-9,79,70,60,54,50,47,79,52,32,30.18,30.09,29.93,10,10,10,14,8,21,0.00,1,,339
2012-9-10,84,68,53,56,50,43,84,56,27,30.25,30.17,30.11,10,10,7,9,3,,0.00,0,,155
2012-9-11,89,74,58,59,55,48,86,55,25,30.17,30.12,30.07,10,10,5,14,5,21,0.00,0,,165
2012-9-12,91,77,63,60,56,49,79,51,24,30.18,30.13,30.10,10,10,7,14,6,20,0.00,0,,172
2012-9-13,76,66,57,63,57,51,81,69,54,30.37,30.25,30.15,10,10,10,16,6,25,0.03,6,Rain,6
2012-9-14,75,66,56,54,51,44,85,65,32,30.40,30.35,30.32,10,9,3,10,6,,0.11,2,Rain,18
2012-9-15,79,66,53,56,49,40,84,59,26,30.33,30.27,30.17,10,10,10,13,2,18,0.00,1,,136
2012-9-16,81,68,55,63,58,51,88,71,51,30.16,30.08,30.00,10,9,0,9,1,,0.00,4,Fog,171
2012-9-17,82,71,60,68,61,50,87,75,51,30.00,29.91,29.80,10,6,0,21,2,33,0.04,7,Fog-Rain-Thunderstorm,309
2012-9-18,71,60,50,50,42,32,81,56,24,30.09,30.01,29.92,10,10,10,15,8,21,0.00,1,,314
2012-9-19,81,64,47,52,44,35,83,49,21,30.11,30.02,29.91,10,10,10,20,6,29,0.00,0,,185
2012-9-20,80,69,58,52,38,11,73,39,7,30.02,29.97,29.92,10,10,7,15,6,21,0.00,0,,276
2012-9-21,86,72,55,55,47,35,78,46,18,30.02,29.86,29.69,10,10,10,21,6,26,0.00,2,Rain,220
2012-9-22,69,58,48,50,37,19,84,48,18,30.26,30.09,29.91,10,10,10,23,7,30,0.00,0,,299
2012-9-23,71,56,41,43,33,19,84,50,14,30.34,30.29,30.25,10,10,10,13,4,21,0.00,0,,298
2012-9-24,77,58,40,49,38,30,81,48,18,30.27,30.12,29.93,10,10,7,16,4,21,0.00,0,,166
2012-9-25,82,72,62,68,62,50,84,74,56,29.93,29.87,29.82,10,9,2,9,5,,0.53,3,Rain-Thunderstorm,158
2012-9-26,76,72,68,67,65,63,84,76,65,30.10,30.00,29.89,10,10,5,15,6,21,0.00,4,Rain-Thunderstorm,240
2012-9-27,75,67,59,63,55,46,85,67,52,30.21,30.16,30.10,10,9,2,12,4,16,0.00,7,,40
2012-9-28,70,60,49,51,46,42,87,64,36,30.23,30.17,30.12,10,10,4,12,4,,0.00,1,,14
2012-9-29,75,59,43,53,45,40,91,61,30,30.17,30.10,30.00,10,10,7,7,2,,0.00,0,,302
2012-9-30,74,62,50,52,47,45,82,57,36,30.00,29.93,29.88,10,10,10,8,4,,0.00,0,,16